| time (UTC) | temp C | wind direction | speed KPH | gust KPH | rain 1hr cm | rain 24hr cm | rain mn cm | humidity % | barometer mb |
| 20260503010156 | 7 | 258 | 3.2 | 11.3 | 0.00 | 0.00 | 0.00 | 50 | |
| 20260503005656 | 7 | 277 | 3.2 | 4.8 | 0.00 | 0.00 | 0.00 | 49 | |
| 20260503005156 | 7 | 306 | 1.6 | 12.9 | 0.00 | 0.00 | 0.00 | 49 | |
| 20260503004656 | 7 | 270 | 6.4 | 9.7 | 0.00 | 0.00 | 0.00 | 48 | |
| 20260503004156 | 8 | 265 | 8.0 | 12.9 | 0.00 | 0.00 | 0.00 | 47 | |
| 20260503003656 | 8 | 309 | 4.8 | 12.9 | 0.00 | 0.00 | 0.00 | 45 | |
| 20260503003156 | 8 | 295 | 11.3 | 17.7 | 0.00 | 0.00 | 0.00 | 43 | |
| 20260503002656 | 9 | 265 | 6.4 | 19.3 | 0.00 | 0.00 | 0.00 | 40 | |
| 20260503002156 | 10 | 307 | 9.7 | 11.3 | 0.00 | 0.00 | 0.00 | 32 | |
| 20260503001656 | 10 | 343 | 4.8 | 19.3 | 0.00 | 0.00 | 0.00 | 32 | |
| 20260503001156 | 10 | 302 | 8.0 | 14.5 | 0.00 | 0.00 | 0.00 | 32 | |
| 20260503000656 | 10 | 284 | 0.0 | 11.3 | 0.00 | 0.00 | 0.00 | 33 | |
| 20260503000156 | 10 | 345 | 8.0 | 17.7 | 0.00 | 0.00 | 0.00 | 31 | |
| 20260502235656 | 10 | 352 | 14.5 | 20.9 | 0.00 | 0.00 | 0.00 | 31 | |
| 20260502235156 | 10 | 11 | 12.9 | 16.1 | 0.00 | 0.00 | 0.00 | 31 | |
| 20260502234656 | 10 | 296 | 8.0 | 19.3 | 0.00 | 0.00 | 0.00 | 32 | |
| 20260502234156 | 10 | 358 | 3.2 | 12.9 | 0.00 | 0.00 | 0.00 | 31 | |
| 20260502233656 | 10 | 357 | 6.4 | 17.7 | 0.00 | 0.00 | 0.00 | 31 | |
| 20260502233156 | 10 | 306 | 4.8 | 19.3 | 0.00 | 0.00 | 0.00 | 30 | |
| 20260502232656 | 10 | 347 | 9.7 | 20.9 | 0.00 | 0.00 | 0.00 | 30 | |
| 20260502232156 | 10 | 357 | 11.3 | 25.7 | 0.00 | 0.00 | 0.00 | 31 | |
| 20260502231656 | 10 | 358 | 11.3 | 20.9 | 0.00 | 0.00 | 0.00 | 29 | |
| 20260502231156 | 10 | 331 | 12.9 | 24.1 | 0.00 | 0.00 | 0.00 | 30 | |
| 20260502230656 | 10 | 1 | 3.2 | 24.1 | 0.00 | 0.00 | 0.00 | 32 | |
| 20260502230156 | 10 | 348 | 8.0 | 19.3 | 0.00 | 0.00 | 0.00 | 30 | |
| 20260502225656 | 10 | 358 | 11.3 | 19.3 | 0.00 | 0.00 | 0.00 | 29 | |
| 20260502225156 | 10 | 347 | 8.0 | 16.1 | 0.00 | 0.00 | 0.00 | 32 | |
| 20260502224656 | 10 | 358 | 14.5 | 19.3 | 0.00 | 0.00 | 0.00 | 29 | |
| 20260502224156 | 10 | 327 | 16.1 | 25.7 | 0.00 | 0.00 | 0.00 | 29 | |
| 20260502223656 | 10 | 8 | 11.3 | 25.7 | 0.00 | 0.00 | 0.00 | 28 | |
| 20260502223156 | 10 | 26 | 20.9 | 29.0 | 0.00 | 0.00 | 0.00 | 29 | |
| 20260502222656 | 10 | 310 | 16.1 | 20.9 | 0.00 | 0.00 | 0.00 | 28 | |
| 20260502222156 | 10 | 329 | 6.4 | 25.7 | 0.00 | 0.00 | 0.00 | 29 | |
| 20260502221656 | 10 | 319 | 16.1 | 27.4 | 0.00 | 0.00 | 0.00 | 28 | |
| 20260502221156 | 10 | 319 | 8.0 | 22.5 | 0.00 | 0.00 | 0.00 | 28 | |
| 20260502220656 | 10 | 30 | 9.7 | 24.1 | 0.00 | 0.00 | 0.00 | 29 | |
| 20260502220156 | 10 | 358 | 11.3 | 24.1 | 0.00 | 0.00 | 0.00 | 27 | |
| 20260502215656 | 10 | 344 | 9.7 | 20.9 | 0.00 | 0.00 | 0.00 | 28 | |
| 20260502215156 | 10 | 29 | 9.7 | 25.7 | 0.00 | 0.00 | 0.00 | 31 | |
| 20260502214656 | 10 | 329 | 17.7 | 24.1 | 0.00 | 0.00 | 0.00 | 28 | |
| 20260502214156 | 10 | 298 | 20.9 | 27.4 | 0.00 | 0.00 | 0.00 | 27 | |
| 20260502213656 | 10 | 16 | 14.5 | 24.1 | 0.00 | 0.00 | 0.00 | 29 | |
| 20260502213156 | 10 | 15 | 3.2 | 25.7 | 0.00 | 0.00 | 0.00 | 30 | |
| 20260502212656 | 10 | 286 | 14.5 | 24.1 | 0.00 | 0.00 | 0.00 | 27 | |
| 20260502212157 | 10 | 298 | 11.3 | 24.1 | 0.00 | 0.00 | 0.00 | 26 | |
| 20260502211656 | 10 | 285 | 11.3 | 24.1 | 0.00 | 0.00 | 0.00 | 27 | |
| 20260502211157 | 10 | 358 | 12.9 | 24.1 | 0.00 | 0.00 | 0.00 | 26 | |
| 20260502210657 | 10 | 324 | 17.7 | 22.5 | 0.00 | 0.00 | 0.00 | 28 | |
| 20260502210157 | 10 | 23 | 12.9 | 20.9 | 0.00 | 0.00 | 0.00 | 30 | |
| 20260502205657 | 10 | 312 | 17.7 | 29.0 | 0.00 | 0.00 | 0.00 | 27 | |
| 20260502205157 | 10 | 324 | 14.5 | 29.0 | 0.00 | 0.00 | 0.00 | 26 | |
| 20260502204657 | 10 | 358 | 11.3 | 11.3 | 0.00 | 0.00 | 0.00 | 31 | |
| 20260502204157 | 10 | 341 | 9.7 | 17.7 | 0.00 | 0.00 | 0.00 | 35 | |
| 20260502203657 | 10 | 341 | 11.3 | 16.1 | 0.00 | 0.00 | 0.00 | 37 | |
| 20260502203157 | 9 | 257 | 8.0 | 27.4 | 0.00 | 0.00 | 0.00 | 41 | |
| 20260502202657 | 10 | 250 | 22.5 | 25.7 | 0.00 | 0.00 | 0.00 | 40 | |
| 20260502202157 | 10 | 9 | 12.9 | 22.5 | 0.00 | 0.00 | 0.00 | 38 | |
| 20260502201657 | 10 | 277 | 14.5 | 30.6 | 0.00 | 0.00 | 0.00 | 39 | |
| 20260502201157 | 10 | 248 | 12.9 | 22.5 | 0.00 | 0.00 | 0.00 | 34 | |
| 20260502200657 | 10 | 289 | 14.5 | 33.8 | 0.00 | 0.00 | 0.00 | 39 | |
| 20260502200157 | 9 | 279 | 12.9 | 25.7 | 0.00 | 0.00 | 0.00 | 38 | |
| 20260502195657 | 10 | 344 | 6.4 | 27.4 | 0.00 | 0.00 | 0.00 | 37 | |
| 20260502195157 | 10 | 288 | 17.7 | 25.7 | 0.00 | 0.00 | 0.00 | 39 | |
| 20260502194657 | 9 | 284 | 6.4 | 19.3 | 0.00 | 0.00 | 0.00 | 38 | |
| 20260502194157 | 9 | 260 | 16.1 | 25.7 | 0.00 | 0.00 | 0.00 | 37 | |
| 20260502193657 | 10 | 350 | 6.4 | 20.9 | 0.00 | 0.00 | 0.00 | 39 | |
| 20260502193157 | 9 | 319 | 11.3 | 25.7 | 0.00 | 0.00 | 0.00 | 37 | |
| 20260502192657 | 9 | 336 | 17.7 | 27.4 | 0.00 | 0.00 | 0.00 | 39 | |
| 20260502192157 | 9 | 307 | 11.3 | 25.7 | 0.00 | 0.00 | 0.00 | 41 | |
| 20260502191657 | 9 | 303 | 19.3 | 27.4 | 0.00 | 0.00 | 0.00 | 40 | |
| 20260502191157 | 9 | 262 | 11.3 | 20.9 | 0.00 | 0.00 | 0.00 | 39 | |
| 20260502190657 | 10 | 250 | 12.9 | 25.7 | 0.00 | 0.00 | 0.00 | 38 | |
| 20260502190157 | 9 | 271 | 17.7 | 25.7 | 0.00 | 0.00 | 0.00 | 41 | |
| 20260502185657 | 8 | 289 | 9.7 | 24.1 | 0.00 | 0.00 | 0.00 | 40 | |
| 20260502185157 | 8 | 334 | 4.8 | 27.4 | 0.00 | 0.00 | 0.00 | 40 | |
| 20260502184657 | 8 | 329 | 17.7 | 22.5 | 0.00 | 0.00 | 0.00 | 41 | |
| 20260502184157 | 8 | 340 | 9.7 | 24.1 | 0.00 | 0.00 | 0.00 | 41 | |
| 20260502183657 | 8 | 267 | 8.0 | 29.0 | 0.00 | 0.00 | 0.00 | 42 | |
| 20260502183157 | 8 | 324 | 12.9 | 24.1 | 0.00 | 0.00 | 0.00 | 42 | |
| 20260502182657 | 8 | 317 | 17.7 | 22.5 | 0.00 | 0.00 | 0.00 | 43 | |
| 20260502182157 | 8 | 285 | 11.3 | 16.1 | 0.00 | 0.00 | 0.00 | 40 | |
| 20260502181657 | 8 | 354 | 6.4 | 20.9 | 0.00 | 0.00 | 0.00 | 41 | |
| 20260502181157 | 8 | 312 | 11.3 | 20.9 | 0.00 | 0.00 | 0.00 | 41 | |
| 20260502180657 | 8 | 285 | 4.8 | 20.9 | 0.00 | 0.00 | 0.00 | 41 | |
| 20260502180157 | 8 | 262 | 11.3 | 19.3 | 0.00 | 0.00 | 0.00 | 40 | |
| 20260502170157 | 7 | 312 | 8.0 | 14.5 | 0.00 | 0.00 | 0.00 | 47 | |
| 20260502164157 | 7 | 307 | 6.4 | 16.1 | 0.00 | 0.00 | 0.00 | 46 | |
| 20260502163657 | 6 | 334 | 14.5 | 20.9 | 0.00 | 0.00 | 0.00 | 46 | |
| 20260502163157 | 7 | 14 | 1.6 | 14.5 | 0.00 | 0.00 | 0.00 | 48 | |
| 20260502162657 | 7 | 285 | 14.5 | 16.1 | 0.00 | 0.00 | 0.00 | 49 | |
| 20260502162157 | 6 | 274 | 16.1 | 16.1 | 0.00 | 0.00 | 0.00 | 48 | |
| 20260502161657 | 7 | 334 | 8.0 | 17.7 | 0.00 | 0.00 | 0.00 | 50 | |
| 20260502161157 | 7 | 340 | 9.7 | 12.9 | 0.00 | 0.00 | 0.00 | 49 | |
| 20260502160657 | 7 | 5 | 0.0 | 20.9 | 0.00 | 0.00 | 0.00 | 50 | |
| 20260502160157 | 6 | 23 | 4.8 | 25.7 | 0.00 | 0.00 | 0.00 | 50 | |
| 20260502152157 | 6 | 312 | 12.9 | 17.7 | 0.00 | 0.00 | 0.00 | 51 | |
| 20260502151657 | 5 | 9 | 14.5 | 24.1 | 0.00 | 0.00 | 0.00 | 51 | |
| 20260502151157 | 5 | 354 | 20.9 | 22.5 | 0.00 | 0.00 | 0.00 | 52 | |
| 20260502150657 | 5 | 292 | 11.3 | 17.7 | 0.00 | 0.00 | 0.00 | 52 | |
| 20260502150157 | 6 | 313 | 12.9 | 25.7 | 0.00 | 0.00 | 0.00 | 53 | |
| 20260502130657 | 3 | 351 | 9.7 | 11.3 | 0.00 | 0.00 | 0.00 | 78 | |
| 20260502130157 | 3 | 322 | 4.8 | 14.5 | 0.00 | 0.00 | 0.00 | 79 | |
| 20260502123657 | 2 | 327 | 3.2 | 6.4 | 0.00 | 0.00 | 0.00 | 83 | |
| 20260502123157 | 2 | 323 | 1.6 | 6.4 | 0.00 | 0.00 | 0.00 | 84 | |
| 20260502122657 | 2 | 340 | 3.2 | 6.4 | 0.00 | 0.00 | 0.00 | 86 | |
| 20260502122157 | 1 | 21 | 0.0 | 1.6 | 0.00 | 0.00 | 0.00 | 88 | |
| 20260502121657 | 1 | 343 | 0.0 | 6.4 | 0.00 | 0.00 | 0.00 | 88 | |
| 20260502121157 | 1 | 336 | 1.6 | 4.8 | 0.00 | 0.00 | 0.00 | 88 | |
| 20260502120657 | 0 | 1 | 1.6 | 4.8 | 0.00 | 0.00 | 0.00 | 88 | |
| 20260502120157 | 0 | 9 | 1.6 | 3.2 | 0.00 | 0.00 | 0.00 | 89 | |
| 20260502115657 | 0 | 327 | 0.0 | 4.8 | 0.00 | 0.00 | 0.00 | 89 | |
| 20260502115157 | 0 | 225 | 0.0 | 0.0 | 0.00 | 0.00 | 0.00 | 90 | |
| 20260502114657 | 0 | 225 | 0.0 | 0.0 | 0.00 | 0.00 | 0.00 | 89 | |
| 20260502114158 | 0 | 225 | 0.0 | 0.0 | 0.00 | 0.00 | 0.00 | 90 | |
| 20260502113658 | 0 | 225 | 0.0 | 0.0 | 0.00 | 0.00 | 0.00 | 90 | |
| 20260502113158 | 0 | 225 | 0.0 | 0.0 | 0.00 | 0.00 | 0.00 | 90 | |
| 20260502112658 | -1 | 225 | 0.0 | 0.0 | 0.00 | 0.00 | 0.00 | 90 | |
| 20260502112158 | -1 | 225 | 0.0 | 0.0 | 0.00 | 0.00 | 0.00 | 90 | |
| 20260502111658 | -1 | 225 | 0.0 | 0.0 | 0.00 | 0.00 | 0.00 | 89 | |
| 20260502111158 | -1 | 225 | 0.0 | 0.0 | 0.00 | 0.00 | 0.00 | 89 | |
| 20260502110658 | -1 | 225 | 0.0 | 0.0 | 0.00 | 0.00 | 0.00 | 89 | |
| 20260502110158 | -1 | 225 | 0.0 | 0.0 | 0.00 | 0.00 | 0.00 | 89 | |
| 20260502105658 | -1 | 225 | 0.0 | 0.0 | 0.00 | 0.00 | 0.00 | 89 | |
| 20260502105158 | -1 | 225 | 0.0 | 0.0 | 0.00 | 0.00 | 0.00 | 89 | |
| 20260502104658 | -1 | 225 | 0.0 | 0.0 | 0.00 | 0.00 | 0.00 | 89 | |
| 20260502104158 | -1 | 225 | 0.0 | 0.0 | 0.00 | 0.00 | 0.00 | 88 | |
| 20260502103658 | -1 | 225 | 0.0 | 0.0 | 0.00 | 0.00 | 0.00 | 88 | |
| 20260502103158 | -1 | 225 | 0.0 | 0.0 | 0.00 | 0.00 | 0.00 | 88 | |
| 20260502102658 | -1 | 225 | 0.0 | 0.0 | 0.00 | 0.00 | 0.00 | 87 | |
| 20260502102158 | -1 | 225 | 0.0 | 0.0 | 0.00 | 0.00 | 0.00 | 87 | |
| 20260502101658 | -1 | 225 | 0.0 | 0.0 | 0.00 | 0.00 | 0.00 | 87 | |
| 20260502101158 | -1 | 225 | 0.0 | 0.0 | 0.00 | 0.00 | 0.00 | 87 | |
| 20260502100658 | 0 | 225 | 0.0 | 0.0 | 0.00 | 0.00 | 0.00 | 87 | |
| 20260502100158 | 0 | 225 | 0.0 | 0.0 | 0.00 | 0.00 | 0.00 | 87 | |
| 20260502091158 | 0 | 323 | 0.0 | 0.0 | 0.00 | 0.00 | 0.00 | 84 | |
| 20260502090658 | 0 | 323 | 0.0 | 0.0 | 0.00 | 0.00 | 0.00 | 83 | |
| 20260502090158 | 0 | 323 | 0.0 | 0.0 | 0.00 | 0.00 | 0.00 | 83 | |
| 20260502071158 | 1 | 323 | 0.0 | 0.0 | 0.00 | 0.00 | 0.00 | 76 | |
| 20260502070658 | 2 | 323 | 0.0 | 0.0 | 0.00 | 0.00 | 0.00 | 76 | |
| 20260502070158 | 2 | 323 | 0.0 | 1.6 | 0.00 | 0.00 | 0.00 | 76 | |
| 20260502065658 | 2 | 343 | 0.0 | 0.0 | 0.00 | 0.00 | 0.00 | 75 | |
| 20260502065158 | 2 | 343 | 0.0 | 3.2 | 0.00 | 0.00 | 0.00 | 75 | |
| 20260502064658 | 2 | 352 | 1.6 | 1.6 | 0.00 | 0.00 | 0.00 | 74 | |
| 20260502064158 | 2 | 312 | 0.0 | 4.8 | 0.00 | 0.00 | 0.00 | 74 | |
| 20260502063658 | 2 | 344 | 1.6 | 3.2 | 0.00 | 0.00 | 0.00 | 74 | |
| 20260502063158 | 2 | 351 | 1.6 | 4.8 | 0.00 | 0.00 | 0.00 | 74 | |
| 20260502062658 | 2 | 351 | 0.0 | 3.2 | 0.00 | 0.00 | 0.00 | 74 | |
| 20260502062158 | 2 | 357 | 3.2 | 4.8 | 0.00 | 0.00 | 0.00 | 73 | |
| 20260502061658 | 2 | 317 | 3.2 | 3.2 | 0.00 | 0.00 | 0.00 | 73 | |
| 20260502061158 | 2 | 307 | 1.6 | 4.8 | 0.00 | 0.00 | 0.00 | 72 | |
| 20260502060658 | 2 | 299 | 0.0 | 4.8 | 0.00 | 0.00 | 0.00 | 72 | |
| 20260502060158 | 2 | 333 | 1.6 | 4.8 | 0.00 | 0.00 | 0.00 | 72 | |
| 20260502055658 | 2 | 343 | 1.6 | 3.2 | 0.00 | 0.00 | 0.00 | 71 | |
| 20260502055158 | 2 | 345 | 0.0 | 4.8 | 0.00 | 0.00 | 0.00 | 71 | |
| 20260502054658 | 2 | 2 | 0.0 | 4.8 | 0.00 | 0.00 | 0.00 | 71 | |
| 20260502054158 | 2 | 358 | 3.2 | 9.7 | 0.00 | 0.00 | 0.00 | 71 | |
| 20260502053658 | 2 | 350 | 4.8 | 4.8 | 0.00 | 0.00 | 0.00 | 70 | |
| 20260502053158 | 2 | 36 | 3.2 | 9.7 | 0.00 | 0.00 | 0.00 | 70 | |
| 20260502052658 | 2 | 7 | 8.0 | 8.0 | 0.00 | 0.00 | 0.00 | 70 | |
| 20260502052158 | 2 | 355 | 1.6 | 8.0 | 0.00 | 0.00 | 0.00 | 70 | |
| 20260502051658 | 2 | 343 | 4.8 | 11.3 | 0.00 | 0.00 | 0.00 | 69 | |
| 20260502051158 | 2 | 7 | 4.8 | 11.3 | 0.00 | 0.00 | 0.00 | 69 | |
| 20260502050658 | 2 | 35 | 4.8 | 9.7 | 0.00 | 0.00 | 0.00 | 69 | |
| 20260502050158 | 2 | 30 | 6.4 | 9.7 | 0.00 | 0.00 | 0.00 | 69 | |
| 20260502045658 | 2 | 345 | 9.7 | 11.3 | 0.00 | 0.00 | 0.00 | 69 | |
| 20260502045158 | 2 | 14 | 6.4 | 11.3 | 0.00 | 0.00 | 0.00 | 69 | |
| 20260502044658 | 2 | 11 | 8.0 | 11.3 | 0.00 | 0.00 | 0.00 | 69 | |
| 20260502044158 | 2 | 42 | 4.8 | 11.3 | 0.00 | 0.00 | 0.00 | 69 | |
| 20260502043658 | 2 | 23 | 3.2 | 8.0 | 0.00 | 0.00 | 0.00 | 68 | |
| 20260502043158 | 2 | 358 | 6.4 | 8.0 | 0.00 | 0.00 | 0.00 | 68 | |
| 20260502042658 | 2 | 7 | 3.2 | 6.4 | 0.00 | 0.00 | 0.00 | 68 | |
| 20260502042158 | 2 | 5 | 3.2 | 11.3 | 0.00 | 0.00 | 0.00 | 67 | |
| 20260502041658 | 2 | 344 | 3.2 | 8.0 | 0.00 | 0.00 | 0.00 | 67 | |
| 20260502041158 | 3 | 4 | 4.8 | 8.0 | 0.00 | 0.00 | 0.00 | 66 | |
| 20260502040658 | 3 | 4 | 4.8 | 11.3 | 0.00 | 0.00 | 0.00 | 66 | |
| 20260502040158 | 3 | 22 | 9.7 | 11.3 | 0.00 | 0.00 | 0.00 | 65 | |
| 20260502035658 | 3 | 2 | 6.4 | 12.9 | 0.00 | 0.00 | 0.00 | 66 | |
| 20260502035158 | 3 | 344 | 8.0 | 14.5 | 0.00 | 0.00 | 0.00 | 65 | |
| 20260502034658 | 3 | 352 | 4.8 | 11.3 | 0.00 | 0.00 | 0.00 | 65 | |
| 20260502034158 | 3 | 327 | 6.4 | 11.3 | 0.00 | 0.00 | 0.00 | 65 | |
| 20260502033658 | 3 | 1 | 4.8 | 12.9 | 0.00 | 0.00 | 0.00 | 65 | |
| 20260502033158 | 3 | 14 | 8.0 | 11.3 | 0.00 | 0.00 | 0.00 | 65 | |
| 20260502032658 | 3 | 357 | 4.8 | 11.3 | 0.00 | 0.00 | 0.00 | 65 | |
| 20260502032158 | 3 | 11 | 9.7 | 12.9 | 0.00 | 0.00 | 0.00 | 65 | |
| 20260502031658 | 3 | 345 | 8.0 | 14.5 | 0.00 | 0.00 | 0.00 | 65 | |
| 20260502031158 | 3 | 352 | 6.4 | 9.7 | 0.00 | 0.00 | 0.00 | 65 | |
| 20260502030658 | 3 | 358 | 4.8 | 11.3 | 0.00 | 0.00 | 0.00 | 64 | |
| 20260502030158 | 3 | 9 | 3.2 | 14.5 | 0.00 | 0.00 | 0.00 | 63 | |
| 20260502025658 | 3 | 22 | 12.9 | 14.5 | 0.00 | 0.00 | 0.00 | 63 | |
| 20260502025158 | 3 | 5 | 9.7 | 12.9 | 0.00 | 0.00 | 0.00 | 63 | |
| 20260502024658 | 3 | 350 | 6.4 | 12.9 | 0.00 | 0.00 | 0.00 | 63 | |
| 20260502024158 | 3 | 5 | 6.4 | 11.3 | 0.00 | 0.00 | 0.00 | 63 | |
| 20260502023658 | 3 | 7 | 9.7 | 14.5 | 0.00 | 0.00 | 0.00 | 63 | |
| 20260502023158 | 3 | 21 | 4.8 | 11.3 | 0.00 | 0.00 | 0.00 | 62 | |
| 20260502022658 | 3 | 15 | 4.8 | 14.5 | 0.00 | 0.00 | 0.00 | 61 | |
| 20260502022158 | 3 | 348 | 8.0 | 12.9 | 0.00 | 0.00 | 0.00 | 61 | |
| 20260502021658 | 3 | 351 | 9.7 | 11.3 | 0.00 | 0.00 | 0.00 | 60 | |
| 20260502021158 | 3 | 1 | 6.4 | 14.5 | 0.00 | 0.00 | 0.00 | 60 | |
| 20260502020658 | 3 | 11 | 6.4 | 14.5 | 0.00 | 0.00 | 0.00 | 59 | |
| 20260502020158 | 3 | 341 | 11.3 | 12.9 | 0.00 | 0.00 | 0.00 | 59 | |
| 20260502015659 | 3 | 2 | 6.4 | 12.9 | 0.00 | 0.00 | 0.00 | 58 | |
| 20260502015159 | 3 | 40 | 8.0 | 12.9 | 0.00 | 0.00 | 0.00 | 58 | |
| 20260502014659 | 3 | 28 | 9.7 | 14.5 | 0.00 | 0.00 | 0.00 | 57 | |
| 20260502014159 | 4 | 343 | 6.4 | 17.7 | 0.00 | 0.00 | 0.00 | 56 | |
| 20260502013659 | 4 | 358 | 11.3 | 16.1 | 0.00 | 0.00 | 0.00 | 55 | |
| 20260502013159 | 3 | 16 | 8.0 | 17.7 | 0.00 | 0.00 | 0.00 | 54 | |
| 20260502012659 | 4 | 26 | 12.9 | 14.5 | 0.00 | 0.00 | 0.00 | 55 | |
| 20260502012159 | 4 | 348 | 11.3 | 14.5 | 0.00 | 0.00 | 0.00 | 55 | |
| 20260502011659 | 4 | 322 | 12.9 | 17.7 | 0.00 | 0.00 | 0.00 | 54 | |
| 20260502011159 | 4 | 5 | 11.3 | 16.1 | 0.00 | 0.00 | 0.00 | 53 | |
| 20260502010659 | 4 | 327 | 12.9 | 16.1 | 0.00 | 0.00 | 0.00 | 52 |